DBBB

Details ICAO DBBB (COO)
Name CADJEHOUN
Region Benin
Timezone Africa/Porto-Novo (UTC+1.0)
Plans Departing 59
Arriving 81
Stats Elevation 19 ft / 6 m (AMSL)
Location 6.357227° 2.384353°
Runways 1
Magnetic Variation 2.476° W
Sunrise 2018-05-23 05:35:28 UTC / 2018-05-23 06:35:28 Local
Sunset 2018-05-23 18:01:48 UTC / 2018-05-23 19:01:48 Local
Advertisement - Login to hide

Runways

ID Width Length Bearing (true) Bearing (mag) Surface Threshold Offset Overrun Length
06 148 ft / 45 m 7,887 ft / 2,404 m 52.94° 55.42° Asphalt 125 ft / 38 m 199 ft / 61 m
24 148 ft / 45 m 7,887 ft / 2,404 m 232.94° 235.42° Asphalt 0 ft / 0 m 416 ft / 127 m

Approach Navaids

Runway Type Ident Frequency Range Bearing (true) Bearing (mag) Slope Elevation
24 Localiser ICN 109.50 MHz 18 nm / 33 km 232.72° 235.20° - 19 ft / 6 m (AMSL)
24 Glidescope ICN 109.50 MHz 10 nm / 19 km 232.94° 235.42° 3.00° 19 ft / 6 m (AMSL)
24 DME ICN 109.50 MHz 18 nm / 33 km - - - 19 ft / 6 m (AMSL)

Map

Weather


0- 5 10 15 20 25 30 35+ Temperature / ° C

Clouds and Precipitation
Forecast for 2018-05-23 18:00 UTC. Updated 6 hours ago

Ground ~20,000 ft ~40,000 ft Winds

METAR

DBBB 232200Z 23010KT 9999 FEW012 28/25 Q1012 NOSIG

TAF

Not found

Frequencies

Tower 125.90 MHz TWR
Approach 125.90 MHz APP
Tower 118.70 MHz TWR
Warning: Do not use this data for real-world aviation or navigation. No guarantee of current accuracy is given.